Weather History for KLAR - March, 2015

Change the Weather History Date:

Thursday, March 19, 2015

  Actual Average Record
Temperature  
Mean Temperature 35 °F 32 °F  
Max Temperature 47 °F 44 °F 67 °F (2004)
Min Temperature 22 °F 20 °F -18 °F (1965)
Degree Days  
Heating Degree Days 30 33  
Month to date heating degree days 597 675  
Since 1 July heating degree days 6274 6851  
Cooling Degree Days 0 0  
Month to date cooling degree days 0 0  
Year to date cooling degree days 0 0  
Moisture  
Dew Point 26 °F    
Average Humidity 64    
Maximum Humidity 96    
Minimum Humidity 31    
Precipitation  
Precipitation T in 0.02 in 0.17 in (1989)
Month to date precipitation 0.11 0.34  
Year to date precipitation 0.90 0.95  
Sea Level Pressure  
Sea Level Pressure 30.07 in    
Wind  
Wind Speed 7 mph (North)    
Max Wind Speed 16 mph    
Max Gust Speed 21 mph    
Visibility 10 miles    
Events Snow    
T = Trace of Precipitation, MM = Missing Value Source: NWS Daily Summary

Daily Weather History Graph

Daily Weather History Graph

Search for Another Location

Airport or City:

Trip Planner

Search our weather history database for the weather conditions in past years. The results will help you decide how hot, cold, wet, or windy it might be!

Date:

Astronomy

Mar. 19, 2015 Rise Set
Actual Time 7:08 AM MDT 7:13 PM MDT
Civil Twilight 6:40 AM MDT 7:41 PM MDT
Nautical Twilight 6:08 AM MDT 8:13 PM MDT
Astronomical Twilight 5:35 AM MDT 8:46 PM MDT
Moon 6:34 AM MDT (3/19) 6:44 PM MDT (3/19)
Length of Visible Light 13h 00m
Length of Day
12h 05m
Waning Crescent, 1% of the Moon is Illuminated
Mar 19
Waning Crescent
Mar 20
New
Mar 27
First Quarter
Apr 4
Full
Apr 11
Last Quarter

Hourly Weather History & Observations

Time (MDT) Temp. Windchill Dew Point Humidity Pressure Visibility Wind Dir Wind Speed Gust Speed Precip Events Conditions
12:53 AM 35.1 °F 29.3 °F 28.9 °F 78% 29.87 in 10.0 mi East 6.9 mph - N/A   Clear
1:53 AM 32.0 °F 26.4 °F 28.0 °F 85% 29.87 in 10.0 mi SSE 5.8 mph - N/A   Clear
2:53 AM 30.9 °F 23.5 °F 27.0 °F 85% 29.91 in 10.0 mi North 8.1 mph - N/A   Clear
3:53 AM 28.9 °F 23.9 °F 27.0 °F 92% 29.92 in 10.0 mi NNW 4.6 mph - N/A   Partly Cloudy
4:53 AM 30.0 °F 25.2 °F 28.9 °F 96% 29.93 in 10.0 mi NNW 4.6 mph - N/A   Mostly Cloudy
5:17 AM 32.0 °F 28.7 °F 30.0 °F 92% 30.07 in 10.0 mi NNW 3.5 mph - N/A   Mostly Cloudy
5:53 AM 33.1 °F 30.0 °F 30.9 °F 92% 29.96 in 10.0 mi NW 3.5 mph - 0.00 in   Overcast
6:53 AM 33.1 °F 28.7 °F 30.9 °F 92% 29.98 in 10.0 mi North 4.6 mph - 0.00 in   Overcast
7:17 AM 33.1 °F 24.4 °F 30.0 °F 89% 30.11 in 9.0 mi North 11.5 mph - 0.00 in Snow Light Snow
7:37 AM 32.0 °F 24.2 °F 30.0 °F 92% 30.12 in 9.0 mi North 9.2 mph - 0.00 in Snow Light Snow
7:53 AM 32.0 °F 23.0 °F 30.0 °F 92% 30.02 in 7.0 mi North 11.5 mph - 0.00 in Snow Light Snow
8:01 AM 32.0 °F 23.6 °F 30.0 °F 92% 30.13 in 4.0 mi North 10.4 mph - 0.00 in Snow Light Snow
8:36 AM 32.0 °F 26.4 °F 30.0 °F 92% 30.13 in 10.0 mi NNE 5.8 mph - 0.00 in   Overcast
8:53 AM 33.1 °F 28.7 °F 30.0 °F 89% 30.04 in 10.0 mi North 4.6 mph - 0.00 in   Overcast
9:20 AM 33.1 °F 27.7 °F 30.0 °F 89% 30.14 in 6.0 mi North 5.8 mph - 0.00 in Snow Light Snow
9:28 AM 34.0 °F 29.8 °F 30.9 °F 89% 30.14 in 7.0 mi NNW 4.6 mph - 0.00 in Snow Light Snow
9:53 AM 34.0 °F 29.8 °F 30.0 °F 85% 30.07 in 10.0 mi North 4.6 mph - 0.00 in   Overcast
10:15 AM 36.0 °F 31.1 °F 30.0 °F 79% 30.16 in 10.0 mi NNE 5.8 mph - N/A   Overcast
10:41 AM 37.9 °F 35.5 °F 30.9 °F 76% 30.16 in 10.0 mi East 3.5 mph - N/A   Overcast
10:53 AM 36.0 °F - 28.0 °F 73% 30.07 in 10.0 mi Calm Calm - N/A   Overcast
11:17 AM 39.0 °F 34.8 °F 28.0 °F 65% 30.15 in 10.0 mi Variable 5.8 mph - N/A   Overcast
11:49 AM 39.2 °F 34.2 °F 26.6 °F 61% 30.15 in 10.0 mi North 6.9 mph - N/A   Mostly Cloudy
11:53 AM 39.0 °F 35.7 °F 27.0 °F 62% 30.07 in 10.0 mi Variable 4.6 mph - N/A   Mostly Cloudy
12:10 PM 41.0 °F 36.4 °F 26.1 °F 55% 30.15 in 10.0 mi NW 6.9 mph - N/A   Scattered Clouds
12:53 PM 42.1 °F 36.1 °F 24.1 °F 49% 30.05 in 10.0 mi North 10.4 mph - N/A   Mostly Cloudy
1:53 PM 43.0 °F 39.5 °F 21.0 °F 42% 30.04 in 10.0 mi North 5.8 mph - N/A   Mostly Cloudy
2:53 PM 44.1 °F 40.1 °F 21.9 °F 42% 30.04 in 10.0 mi NNW 6.9 mph - 0.00 in   Mostly Cloudy
3:53 PM 44.1 °F 38.1 °F 21.0 °F 40% 30.06 in 10.0 mi NW 11.5 mph - N/A   Overcast
4:53 PM 46.0 °F 41.0 °F 17.1 °F 31% 30.04 in 10.0 mi North 10.4 mph - N/A   Clear
5:53 PM 44.1 °F 38.6 °F 19.9 °F 38% 30.03 in 10.0 mi NW 10.4 mph - N/A   Clear
6:53 PM 41.0 °F 35.2 °F 19.9 °F 43% 30.07 in 10.0 mi NNW 9.2 mph - N/A   Clear
7:53 PM 35.1 °F 29.3 °F 19.0 °F 52% 30.12 in 10.0 mi NNW 6.9 mph - N/A   Clear
8:53 PM 30.0 °F 23.2 °F 19.0 °F 64% 30.16 in 10.0 mi West 6.9 mph - N/A   Clear
9:53 PM 26.1 °F 20.5 °F 23.0 °F 88% 30.20 in 10.0 mi South 4.6 mph - N/A   Clear
10:53 PM 25.0 °F 18.1 °F 23.0 °F 92% 30.20 in 10.0 mi South 5.8 mph - N/A   Clear
11:53 PM 23.0 °F 13.9 °F 21.0 °F 92% 30.20 in 10.0 mi South 8.1 mph - N/A   Clear